SCP
-0 -0 0 0 0 0 0 0 0 0 0 0 0 -0 -0 0 -0 0 0 -0 0 -0 -0 -0 -0 -1 -0 -0 -0 -0 -0 -0 -0 -0 -0 -0 0 0 0 0 0 0 0 0 0 0 0 0 0
-0 -0 0 0 0 0 0 0 0 0 0 0 0 0 0 0 -0 -0 0 -0 0 -0 -0 -0 -0 -0 -0 -0 -0 -0 -0 -0 -0 -0 -0 -0 0 0 0 0 0 0 0 0 0 0 0 0 0
-0 0 0 0 0 -0 0 0 0 0 0 0 0 0 0 0 0 0 0 -0 0 -0 -0 -0 -0 -0 -0 -0 -0 -0 -0 -0 -0 -0 -0 -0 -0 0 0 0 0 0 0 0 0 0 0 0 0
0 0 0 0 0 0 0 0 0 0 0 0 0 0 0 0 0 0 0 -0 -0 -0 -0 -0 -0 -0 -0 -0 -0 -0 -0 -0 -0 -0 -0 -0 -0 0 0 0 0 0 0 0 0 0 0 0 0
0 0 0 0 0 0 0 0 0 0 0 0 0 0 0 0 0 0 0 0 0 -0 -0 -0 -0 -0 -0 -0 -0 -0 -0 -0 -0 -0 -0 -0 0 0 0 0 0 0 0 0 0 0 0 0 0
-0 0 0 0 0 0 0 0 0 0 0 0 0 0 0 0 0 0 0 0 0 0 0 -0 -0 -0 0 -0 0 0 0 0 0 0 -0 0 0 0 0 0 0 0 0 0 0 0 0 0 0
0 0 0 0 0 0 0 0 0 0 0 0 0 0 0 0 0 0 0 0 0 0 0 0 0 0 0 0 0 0 0 0 0 0 0 0 0 0 0 0 0 0 0 0 0 0 0 0 0
0 0 0 0 0 0 0 0 0 0 0 0 0 0 0 0 0 0 0 0 0 0 0 0 0 0 0 0 0 0 0 0 0 0 0 0 0 0 0 0 0 0 0 0 0 0 0 0 0
0 0 0 0 0 0 0 0 0 0 0 0 0 0 0 0 0 0 0 0 0 0 0 0 0 0 0 0 0 0 0 0 0 0 0 0 0 0 0 0 0 0 0 0 0 0 0 0 0
0 0 0 0 0 0 0 0 0 0 0 0 0 0 0 0 0 0 0 0 0 0 0 0 0 0 0 0 0 0 0 0 0 0 0 0 0 0 0 0 0 0 0 0 0 0 0 0 0
0 0 0 0 0 0 0 0 0 0 0 0 0 0 0 0 0 0 0 0 0 0 0 0 0 0 0 0 0 0 0 0 0 0 0 0 0 0 0 0 0 0 0 0 0 0 0 0 0
0 0 0 0 0 0 0 0 0 0 0 0 0 0 0 0 0 0 0 0 0 0 0 0 0 0 0 0 0 0 0 0 0 0 0 0 0 0 0 0 0 0 0 0 0 0 0 0 0
0 0 0 0 0 0 0 0 0 0 0 0 0 0 0 0 0 0 0 0 0 0 0 0 0 0 0 0 0 0 0 0 0 0 0 0 0 0 0 0 0 0 0 0 0 0 0 0 0
0 0 0 0 0 0 0 0 0 0 0 0 0 0 0 0 0 0 0 0 0 0 0 0 0 0 0 0 0 0 0 0 0 0 0 0 0 0 0 0 0 0 0 0 0 0 0 0 0
0 0 0 0 0 0 0 0 0 0 0 0 0 0 0 0 0 0 0 0 0 0 0 0 0 0 0 0 0 0 0 0 0 0 0 0 0 0 0 0 0 0 0 0 0 0 0 0 0
0 0 0 0 0 0 0 0 0 0 0 0 0 0 0 0 0 0 0 0 0 0 0 0 0 0 0 0 0 0 0 0 0 0 0 0 0 0 0 0 0 0 0 0 0 0 0 0 0
0 0 0 0 0 0 0 0 0 0 0 0 0 0 0 0 0 0 0 0 0 0 0 0 0 0 0 0 0 0 0 0 0 0 0 0 0 0 0 0 0 0 0 0 0 0 0 0 0
0 0 0 0 0 0 0 0 0 0 0 0 0 0 0 0 0 0 0 0 0 0 0 0 0 0 0 0 0 0 0 0 0 0 0 0 0 0 0 0 0 0 0 0 0 0 0 0 0
0 0 0 0 0 0 0 0 0 0 0 0 0 0 0 0 0 0 0 0 0 0 0 0 0 0 0 0 0 0 0 0 0 0 0 0 0 0 0 0 0 0 0 0 0 0 0 0 0
0 0 0 0 0 0 0 0 0 -0 0 0 0 0 0 0 0 0 0 0 0 0 0 0 0 0 0 0 0 0 0 0 0 0 0 0 0 0 0 0 0 0 0 0 0 0 0 0 0
0 0 0 0 0 0 0 0 -0 0 0 0 0 0 0 0 0 0 0 0 0 0 0 0 0 0 0 0 0 0 0 0 0 0 0 0 0 0 0 0 0 0 0 0 0 0 0 0 0
0 0 0 0 0 0 0 0 0 0 0 0 0 0 0 0 0 0 0 0 0 0 0 0 0 0 0 0 0 0 0 0 0 0 0 0 0 0 0 0 0 0 0 0 0 0 0 0 0
0 0 0 0 0 0 0 0 -0 0 0 0 0 0 0 0 0 0 0 0 0 0 0 0 0 0 0 0 0 0 0 0 0 0 0 0 0 0 0 0 0 0 0 0 0 0 0 0 0
0 0 0 0 0 0 0 0 0 0 0 0 0 0 0 0 0 0 0 0 0 0 0 0 0 0 0 0 0 0 0 0 0 0 0 0 0 0 0 0 0 0 0 0 0 0 0 0 0
0 0 0 0 0 0 0 0 0 0 0 0 0 0 0 0 0 0 0 0 0 0 -0 -0 0 0 0 0 0 0 0 0 0 0 0 0 0 0 0 0 0 0 0 0 0 0 0 0 0
0 0 0 0 0 0 0 0 0 0 0 0 0 0 0 0 0 0 0 0 0 -0 -0 -0 -0 -0 -0 0 0 0 0 0 0 0 0 0 0 0 0 0 0 0 0 0 0 0 0 0 0
0 0 0 0 0 0 0 0 0 0 0 0 0 0 0 0 0 0 0 -0 -0 -0 -0 -0 -0 -0 -0 -0 -0 -0 0 0 0 0 0 0 0 0 0 0 0 0 0 0 0 0 0 0 0
0 0 0 0 0 0 0 0 0 0 0 0 0 0 0 0 0 0 -0 -0 -0 -0 -0 -0 -0 -0 -0 -0 -0 -0 -0 -0 -0 0 0 0 0 0 0 0 0 0 0 0 0 0 0 0 0
0 0 0 0 0 0 0 0 0 0 0 0 0 0 0 0 -0 -0 -0 -0 -0 -0 -0 -0 -0 -0 -0 -0 -0 -0 -0 -0 -0 -0 -0 0 0 0 0 0 0 0 0 0 0 0 0 0 0
0 0 0 0 0 0 0 0 0 0 0 0 0 0 0 0 -0 -0 -0 -0 -0 -0 -0 -0 -0 -0 -0 -0 -0 -0 -0 -0 -0 -0 -0 -0 -0 -0 -0 0 0 0 0 0 0 0 0 0 0
Wind_Speed_500mb
15 12 13 14 3 5 7 10 3 12 6 10 8 8 7 14 8 1 6 6 12 25 29 38 38 39 40 38 34 32 29 27 23 19 19 15 13 13 13 13 12 11 13 10 7 8 9 8 6
11 5 9 11 5 5 6 6 14 11 9 6 6 7 10 1 10 2 1 6 19 21 26 39 40 40 40 38 35 33 31 28 26 24 23 20 19 18 19 18 16 15 16 12 12 12 12 10 9
4 5 9 5 6 6 6 9 9 6 6 5 5 4 5 5 5 5 7 5 20 24 23 36 40 41 42 39 36 34 32 30 28 28 24 23 22 24 22 21 20 19 17 13 16 16 14 12 10
4 7 10 3 12 7 8 12 19 14 9 6 4 14 7 10 7 9 7 7 17 25 29 31 41 42 43 41 38 36 34 32 29 27 27 27 28 22 18 19 20 20 18 19 17 14 13 9 6
12 11 6 7 15 5 4 11 5 9 8 6 6 5 5 10 7 11 14 12 16 23 29 31 35 44 44 42 41 39 38 35 32 29 31 26 30 23 19 21 21 20 21 18 15 13 8 5 2
10 6 6 9 14 9 7 11 7 11 10 8 4 18 8 10 7 5 9 8 15 23 28 31 33 41 45 44 41 40 39 38 35 33 34 32 34 25 22 24 22 22 20 18 13 11 9 6 3
6 5 11 13 15 9 5 10 5 13 16 6 10 8 7 10 12 13 14 13 14 23 29 34 33 40 46 47 45 44 44 41 42 40 39 39 32 26 22 23 22 21 20 18 13 11 9 6 4
9 4 10 8 9 11 11 7 5 9 15 14 6 7 6 12 15 17 21 18 20 24 32 33 37 39 45 49 50 48 45 45 45 46 45 47 32 29 25 24 23 23 23 19 16 14 13 11 8
7 6 9 15 9 9 18 5 5 11 21 34 16 27 31 33 32 36 30 25 28 29 36 35 39 41 45 50 52 52 52 51 51 52 52 49 36 32 30 28 28 27 26 23 20 18 15 13 11
7 6 11 15 17 15 35 26 29 25 27 44 35 37 46 41 35 35 38 34 35 37 39 41 41 45 45 48 53 54 55 56 57 57 55 51 42 37 34 33 33 32 29 28 25 22 20 18 16
11 9 14 29 40 21 22 32 35 34 16 48 45 44 35 28 36 39 46 45 41 39 42 46 45 47 50 49 49 53 56 59 60 61 59 56 47 42 43 40 37 37 34 32 31 28 27 24 23
16 28 34 37 30 17 12 31 35 43 49 51 56 54 54 53 47 43 49 50 38 45 50 48 46 53 53 54 55 55 54 60 65 66 65 59 54 50 50 45 41 40 39 39 36 35 32 28 25
14 27 38 39 29 33 32 36 31 53 63 56 58 51 47 45 45 46 42 44 45 48 50 55 53 50 55 57 59 62 63 58 59 65 66 63 59 57 54 50 47 46 43 43 41 37 34 32 30
26 29 34 40 55 52 29 33 22 47 43 48 48 39 41 41 40 38 36 38 45 47 41 50 59 53 51 57 60 63 62 60 61 65 61 58 58 61 56 53 54 52 48 48 45 42 39 37 35
17 13 21 38 37 17 16 11 19 46 25 21 24 40 44 39 50 53 49 47 40 45 43 39 51 53 51 53 57 60 61 58 62 64 61 58 59 64 60 59 60 58 55 52 51 51 49 46 42
14 14 11 12 10 9 15 12 22 18 30 38 59 64 51 60 52 37 21 7 22 34 35 34 38 46 49 47 53 57 57 58 58 61 59 59 59 61 62 64 65 63 62 59 58 57 54 51 49
15 10 17 18 15 12 11 10 16 38 51 51 62 55 46 37 20 21 17 11 7 5 10 14 25 31 38 43 44 47 50 54 57 58 60 59 63 63 64 68 68 67 68 68 65 63 59 57 55
12 17 20 24 14 23 22 22 20 30 49 56 50 50 37 50 55 45 31 14 2 5 10 9 10 20 25 30 36 41 43 43 49 52 53 58 62 65 61 68 71 72 75 73 71 67 63 63 59
19 18 26 21 19 25 23 25 20 46 46 47 51 14 64 63 44 32 31 29 30 28 23 19 11 0 7 8 19 28 39 41 44 48 54 56 59 64 64 63 71 73 79 78 73 71 70 71 67
18 23 26 17 16 17 20 29 41 36 33 7 39 51 57 54 44 43 44 47 48 45 38 28 22 16 14 13 6 11 11 11 27 31 34 41 50 60 66 66 68 76 82 81 78 76 76 74 75
21 16 21 20 16 14 16 16 16 6 36 58 67 63 59 48 42 46 55 58 56 53 51 43 33 26 19 10 5 5 10 18 25 27 31 37 39 46 57 63 65 69 81 85 84 84 84 85 85
15 7 7 13 13 7 17 10 12 16 24 33 51 54 49 43 43 48 54 59 60 58 55 53 48 42 34 24 18 13 8 7 11 21 24 27 34 33 37 47 56 61 70 84 86 87 90 90 93
8 7 5 14 11 12 17 10 11 33 21 22 31 43 40 37 39 42 47 49 49 48 49 49 46 44 41 36 33 30 25 22 19 17 17 26 32 36 33 35 43 54 63 73 81 89 93 96 100
7 6 17 17 7 3 8 6 8 9 28 15 31 36 32 29 31 34 36 37 40 39 38 37 35 33 33 34 33 31 30 27 24 23 24 21 21 33 39 31 31 41 53 63 74 80 90 96 101
3 7 6 6 2 9 15 11 8 9 23 31 33 34 32 28 30 33 35 36 37 39 39 37 34 34 35 34 33 32 32 33 33 33 32 30 26 24 28 39 43 40 40 49 64 78 84 90 98
12 4 6 11 5 12 15 11 7 21 39 48 43 34 31 29 28 30 29 30 32 34 36 38 40 41 41 37 35 32 30 30 33 34 33 34 33 31 30 32 41 47 52 50 49 62 80 85 92
3 5 6 7 5 3 9 12 10 21 23 34 37 33 26 23 23 22 20 19 23 29 29 31 32 34 35 37 39 39 38 37 37 36 39 41 41 38 38 37 33 38 50 58 59 58 64 80 89
3 3 3 5 6 9 11 9 10 22 24 21 21 25 18 14 16 16 17 19 20 20 27 28 33 34 40 44 44 43 40 41 41 41 42 45 47 49 46 41 43 45 41 47 56 64 66 72 83
1 3 6 2 7 7 14 11 11 24 20 18 18 14 10 8 8 10 11 15 17 23 30 34 40 43 44 45 47 47 50 52 51 49 48 50 51 50 51 50 51 51 52 46 48 59 66 71 79
9 11 7 8 10 8 9 17 15 24 22 23 16 10 4 2 1 7 13 18 23 31 38 42 47 52 55 55 51 51 53 54 57 60 59 59 59 57 56 55 56 58 57 56 54 53 59 70 78
Wind_Direction_500mb
308 328 340 310 258 203 270 80 355 17 58 36 351 357 316 282 306 48 161 190 175 213 192 192 194 196 197 197 199 199 202 207 211 207 207 192 215 208 214 218 235 249 278 294 308 318 317 317 307
323 340 334 278 249 260 78 101 83 55 34 336 308 276 246 99 89 323 258 193 184 218 203 198 198 200 201 201 201 203 204 206 209 198 209 218 226 230 231 234 239 252 267 287 294 300 302 301 288
355 39 273 236 270 6 8 96 84 75 133 223 290 225 297 36 98 167 254 233 196 209 216 204 206 205 205 207 207 207 206 206 208 217 232 244 246 241 244 246 249 257 272 288 287 295 296 294 281
40 253 252 268 298 17 5 350 30 330 119 155 313 292 183 244 226 256 266 260 212 210 213 209 207 211 212 213 214 212 212 210 209 224 238 243 254 247 244 235 241 255 275 276 282 288 297 292 267
347 276 275 235 257 101 358 356 58 300 318 176 176 274 295 224 294 267 272 255 219 217 211 220 211 213 214 216 217 218 217 219 222 228 239 241 249 250 228 231 244 257 266 271 278 287 286 262 242
276 242 284 273 359 9 93 62 358 278 288 98 262 254 257 223 279 325 319 268 224 228 220 225 221 218 218 217 216 217 218 220 223 224 233 239 242 241 231 241 243 246 247 254 257 246 228 221 208
254 295 263 305 303 299 137 101 267 346 319 265 201 298 294 210 242 324 318 290 241 228 233 233 225 221 219 222 220 218 219 221 221 225 231 243 248 244 235 243 247 250 254 254 240 224 224 231 226
298 295 276 259 271 323 111 118 252 306 302 314 189 257 24 185 241 284 302 281 258 232 247 234 234 224 223 224 223 222 222 223 225 227 231 242 243 240 238 243 244 248 250 244 230 221 218 227 241
302 296 277 278 298 273 129 177 247 254 271 283 262 263 279 286 279 281 284 270 257 246 242 245 236 233 227 228 227 227 225 225 224 225 234 247 246 241 239 239 240 240 241 235 228 227 233 241 247
225 235 263 314 338 332 327 327 316 303 289 284 291 280 256 258 284 285 281 272 263 255 246 248 241 237 236 230 230 228 228 225 223 225 234 249 247 244 242 242 243 240 234 230 229 230 233 239 242
209 227 277 309 324 342 323 306 297 286 275 269 276 293 319 259 267 280 280 274 271 271 260 251 247 240 236 234 232 231 228 227 227 231 235 246 248 243 245 241 239 241 236 232 230 229 233 236 238
253 255 268 281 284 301 284 300 301 283 274 268 279 284 290 288 280 274 279 282 265 251 262 263 252 241 235 233 230 236 233 232 233 237 242 245 247 242 242 246 245 243 237 233 231 230 235 236 238
271 259 269 291 301 287 286 276 282 282 274 271 280 284 283 280 277 276 266 264 269 263 247 258 261 251 242 234 232 231 237 238 240 241 245 246 246 244 245 245 246 247 245 241 238 235 237 239 241
297 331 307 287 276 270 261 271 292 280 280 281 277 290 286 281 283 279 269 274 265 269 256 242 255 258 250 242 237 238 239 241 241 246 251 251 242 244 246 243 246 246 247 244 244 241 240 242 243
319 309 285 273 268 234 197 279 233 274 320 319 296 288 291 294 304 298 290 275 278 267 270 252 242 256 255 248 243 237 243 241 244 251 254 252 247 246 247 245 244 247 249 245 242 239 238 240 241
273 256 280 264 206 127 123 262 287 318 327 316 295 284 292 299 301 302 281 321 282 259 266 274 246 242 253 250 243 243 238 243 245 254 258 258 255 252 252 247 245 247 248 248 244 240 239 239 240
229 256 259 284 255 144 170 239 264 284 285 281 276 288 297 302 69 32 27 17 13 237 235 269 264 251 244 250 245 244 244 241 246 248 256 258 258 255 252 252 250 248 248 249 247 243 240 241 240
276 296 306 306 317 312 298 265 252 299 293 287 297 298 294 78 63 67 69 74 149 170 215 207 244 245 244 239 237 235 247 247 245 252 252 255 259 262 256 252 251 249 248 247 245 244 241 240 240
274 314 303 303 308 290 286 303 308 284 279 285 285 304 91 77 73 72 74 78 87 98 110 127 143 116 220 227 237 244 247 254 257 258 260 259 260 263 263 257 254 252 252 252 250 246 240 238 235
308 295 289 281 294 335 321 301 280 284 281 5 70 83 83 73 63 62 64 69 72 74 73 85 97 102 106 156 184 223 230 247 255 267 271 267 265 264 267 266 259 255 254 253 251 246 240 234 234
271 268 300 315 338 290 302 276 258 56 79 82 66 69 70 70 66 60 60 59 59 61 60 59 65 74 80 86 144 204 229 252 264 270 272 271 275 266 267 272 270 263 259 257 253 250 245 242 238
280 272 325 320 341 287 40 273 305 275 86 71 71 66 63 60 59 56 54 56 55 54 57 55 51 51 51 54 57 53 37 352 296 287 280 290 292 288 281 277 276 272 266 264 261 256 249 246 241
233 45 303 271 261 304 250 261 252 102 107 97 85 80 75 70 63 55 54 51 50 47 44 45 45 47 47 42 38 32 24 5 351 343 318 289 293 296 297 287 277 273 271 268 266 262 256 250 247
60 263 253 249 205 284 300 253 294 29 135 111 103 99 92 79 67 58 47 44 42 38 34 31 30 27 26 24 26 24 21 15 1 348 334 316 302 307 313 311 295 283 271 267 268 266 264 260 255
190 264 317 344 85 213 42 354 297 61 138 135 126 110 99 84 71 56 47 34 30 28 25 25 24 24 21 17 14 13 8 4 2 359 354 341 319 301 303 309 308 298 290 276 267 264 263 262 260
197 287 176 244 201 265 341 252 252 113 102 108 110 105 89 74 57 50 41 29 21 20 19 17 16 16 17 19 17 12 6 360 351 348 348 348 345 343 329 301 288 297 296 290 279 268 263 263 262
88 208 324 276 55 312 227 238 98 121 122 118 105 89 74 63 58 55 39 38 30 20 22 22 20 20 18 17 14 11 10 5 1 353 345 338 337 336 334 333 324 296 283 284 286 277 271 265 265
157 23 321 17 266 242 262 267 266 163 141 109 92 92 77 60 64 60 58 46 45 31 29 16 12 9 7 6 5 3 0 359 354 347 341 338 335 334 328 329 327 323 311 292 283 278 275 269 265
162 242 193 140 156 242 272 268 98 91 98 97 101 104 103 103 86 60 40 38 24 18 15 9 2 357 355 352 350 349 348 348 345 343 340 336 332 329 327 332 330 322 317 310 290 281 278 273 268
290 284 251 206 224 230 267 250 111 113 108 119 144 145 157 121 116 21 8 1 3 2 1 358 356 352 346 343 341 339 338 336 334 331 331 329 329 329 332 333 326 321 320 315 309 294 282 279 274
Wind_Speed_850mb
15 12 13 14 3 5 7 10 3 12 6 10 8 8 7 14 8 1 6 6 12 25 29 38 38 39 40 38 34 32 29 27 23 19 19 15 13 13 13 13 12 11 13 10 7 8 9 8 6
11 5 9 11 5 5 6 6 14 11 9 6 6 7 10 1 10 2 1 6 19 21 26 39 40 40 40 38 35 33 31 28 26 24 23 20 19 18 19 18 16 15 16 12 12 12 12 10 9
4 5 9 5 6 6 6 9 9 6 6 5 5 4 5 5 5 5 7 5 20 24 23 36 40 41 42 39 36 34 32 30 28 28 24 23 22 24 22 21 20 19 17 13 16 16 14 12 10
4 7 10 3 12 7 8 12 19 14 9 6 4 14 7 10 7 9 7 7 17 25 29 31 41 42 43 41 38 36 34 32 29 27 27 27 28 22 18 19 20 20 18 19 17 14 13 9 6
12 11 6 7 15 5 4 11 5 9 8 6 6 5 5 10 7 11 14 12 16 23 29 31 35 44 44 42 41 39 38 35 32 29 31 26 30 23 19 21 21 20 21 18 15 13 8 5 2
10 6 6 9 14 9 7 11 7 11 10 8 4 18 8 10 7 5 9 8 15 23 28 31 33 41 45 44 41 40 39 38 35 33 34 32 34 25 22 24 22 22 20 18 13 11 9 6 3
6 5 11 13 15 9 5 10 5 13 16 6 10 8 7 10 12 13 14 13 14 23 29 34 33 40 46 47 45 44 44 41 42 40 39 39 32 26 22 23 22 21 20 18 13 11 9 6 4
9 4 10 8 9 11 11 7 5 9 15 14 6 7 6 12 15 17 21 18 20 24 32 33 37 39 45 49 50 48 45 45 45 46 45 47 32 29 25 24 23 23 23 19 16 14 13 11 8
7 6 9 15 9 9 18 5 5 11 21 34 16 27 31 33 32 36 30 25 28 29 36 35 39 41 45 50 52 52 52 51 51 52 52 49 36 32 30 28 28 27 26 23 20 18 15 13 11
7 6 11 15 17 15 35 26 29 25 27 44 35 37 46 41 35 35 38 34 35 37 39 41 41 45 45 48 53 54 55 56 57 57 55 51 42 37 34 33 33 32 29 28 25 22 20 18 16
11 9 14 29 40 21 22 32 35 34 16 48 45 44 35 28 36 39 46 45 41 39 42 46 45 47 50 49 49 53 56 59 60 61 59 56 47 42 43 40 37 37 34 32 31 28 27 24 23
16 28 34 37 30 17 12 31 35 43 49 51 56 54 54 53 47 43 49 50 38 45 50 48 46 53 53 54 55 55 54 60 65 66 65 59 54 50 50 45 41 40 39 39 36 35 32 28 25
14 27 38 39 29 33 32 36 31 53 63 56 58 51 47 45 45 46 42 44 45 48 50 55 53 50 55 57 59 62 63 58 59 65 66 63 59 57 54 50 47 46 43 43 41 37 34 32 30
26 29 34 40 55 52 29 33 22 47 43 48 48 39 41 41 40 38 36 38 45 47 41 50 59 53 51 57 60 63 62 60 61 65 61 58 58 61 56 53 54 52 48 48 45 42 39 37 35
17 13 21 38 37 17 16 11 19 46 25 21 24 40 44 39 50 53 49 47 40 45 43 39 51 53 51 53 57 60 61 58 62 64 61 58 59 64 60 59 60 58 55 52 51 51 49 46 42
14 14 11 12 10 9 15 12 22 18 30 38 59 64 51 60 52 37 21 7 22 34 35 34 38 46 49 47 53 57 57 58 58 61 59 59 59 61 62 64 65 63 62 59 58 57 54 51 49
15 10 17 18 15 12 11 10 16 38 51 51 62 55 46 37 20 21 17 11 7 5 10 14 25 31 38 43 44 47 50 54 57 58 60 59 63 63 64 68 68 67 68 68 65 63 59 57 55
12 17 20 24 14 23 22 22 20 30 49 56 50 50 37 50 55 45 31 14 2 5 10 9 10 20 25 30 36 41 43 43 49 52 53 58 62 65 61 68 71 72 75 73 71 67 63 63 59
19 18 26 21 19 25 23 25 20 46 46 47 51 14 64 63 44 32 31 29 30 28 23 19 11 0 7 8 19 28 39 41 44 48 54 56 59 64 64 63 71 73 79 78 73 71 70 71 67
18 23 26 17 16 17 20 29 41 36 33 7 39 51 57 54 44 43 44 47 48 45 38 28 22 16 14 13 6 11 11 11 27 31 34 41 50 60 66 66 68 76 82 81 78 76 76 74 75
21 16 21 20 16 14 16 16 16 6 36 58 67 63 59 48 42 46 55 58 56 53 51 43 33 26 19 10 5 5 10 18 25 27 31 37 39 46 57 63 65 69 81 85 84 84 84 85 85
15 7 7 13 13 7 17 10 12 16 24 33 51 54 49 43 43 48 54 59 60 58 55 53 48 42 34 24 18 13 8 7 11 21 24 27 34 33 37 47 56 61 70 84 86 87 90 90 93
8 7 5 14 11 12 17 10 11 33 21 22 31 43 40 37 39 42 47 49 49 48 49 49 46 44 41 36 33 30 25 22 19 17 17 26 32 36 33 35 43 54 63 73 81 89 93 96 100
7 6 17 17 7 3 8 6 8 9 28 15 31 36 32 29 31 34 36 37 40 39 38 37 35 33 33 34 33 31 30 27 24 23 24 21 21 33 39 31 31 41 53 63 74 80 90 96 101
3 7 6 6 2 9 15 11 8 9 23 31 33 34 32 28 30 33 35 36 37 39 39 37 34 34 35 34 33 32 32 33 33 33 32 30 26 24 28 39 43 40 40 49 64 78 84 90 98
12 4 6 11 5 12 15 11 7 21 39 48 43 34 31 29 28 30 29 30 32 34 36 38 40 41 41 37 35 32 30 30 33 34 33 34 33 31 30 32 41 47 52 50 49 62 80 85 92
3 5 6 7 5 3 9 12 10 21 23 34 37 33 26 23 23 22 20 19 23 29 29 31 32 34 35 37 39 39 38 37 37 36 39 41 41 38 38 37 33 38 50 58 59 58 64 80 89
3 3 3 5 6 9 11 9 10 22 24 21 21 25 18 14 16 16 17 19 20 20 27 28 33 34 40 44 44 43 40 41 41 41 42 45 47 49 46 41 43 45 41 47 56 64 66 72 83
1 3 6 2 7 7 14 11 11 24 20 18 18 14 10 8 8 10 11 15 17 23 30 34 40 43 44 45 47 47 50 52 51 49 48 50 51 50 51 50 51 51 52 46 48 59 66 71 79
9 11 7 8 10 8 9 17 15 24 22 23 16 10 4 2 1 7 13 18 23 31 38 42 47 52 55 55 51 51 53 54 57 60 59 59 59 57 56 55 56 58 57 56 54 53 59 70 78
Wind_Direction_850mb
308 328 340 310 258 203 270 80 355 17 58 36 351 357 316 282 306 48 161 190 175 213 192 192 194 196 197 197 199 199 202 207 211 207 207 192 215 208 214 218 235 249 278 294 308 318 317 317 307
323 340 334 278 249 260 78 101 83 55 34 336 308 276 246 99 89 323 258 193 184 218 203 198 198 200 201 201 201 203 204 206 209 198 209 218 226 230 231 234 239 252 267 287 294 300 302 301 288
355 39 273 236 270 6 8 96 84 75 133 223 290 225 297 36 98 167 254 233 196 209 216 204 206 205 205 207 207 207 206 206 208 217 232 244 246 241 244 246 249 257 272 288 287 295 296 294 281
40 253 252 268 298 17 5 350 30 330 119 155 313 292 183 244 226 256 266 260 212 210 213 209 207 211 212 213 214 212 212 210 209 224 238 243 254 247 244 235 241 255 275 276 282 288 297 292 267
347 276 275 235 257 101 358 356 58 300 318 176 176 274 295 224 294 267 272 255 219 217 211 220 211 213 214 216 217 218 217 219 222 228 239 241 249 250 228 231 244 257 266 271 278 287 286 262 242
276 242 284 273 359 9 93 62 358 278 288 98 262 254 257 223 279 325 319 268 224 228 220 225 221 218 218 217 216 217 218 220 223 224 233 239 242 241 231 241 243 246 247 254 257 246 228 221 208
254 295 263 305 303 299 137 101 267 346 319 265 201 298 294 210 242 324 318 290 241 228 233 233 225 221 219 222 220 218 219 221 221 225 231 243 248 244 235 243 247 250 254 254 240 224 224 231 226
298 295 276 259 271 323 111 118 252 306 302 314 189 257 24 185 241 284 302 281 258 232 247 234 234 224 223 224 223 222 222 223 225 227 231 242 243 240 238 243 244 248 250 244 230 221 218 227 241
302 296 277 278 298 273 129 177 247 254 271 283 262 263 279 286 279 281 284 270 257 246 242 245 236 233 227 228 227 227 225 225 224 225 234 247 246 241 239 239 240 240 241 235 228 227 233 241 247
225 235 263 314 338 332 327 327 316 303 289 284 291 280 256 258 284 285 281 272 263 255 246 248 241 237 236 230 230 228 228 225 223 225 234 249 247 244 242 242 243 240 234 230 229 230 233 239 242
209 227 277 309 324 342 323 306 297 286 275 269 276 293 319 259 267 280 280 274 271 271 260 251 247 240 236 234 232 231 228 227 227 231 235 246 248 243 245 241 239 241 236 232 230 229 233 236 238
253 255 268 281 284 301 284 300 301 283 274 268 279 284 290 288 280 274 279 282 265 251 262 263 252 241 235 233 230 236 233 232 233 237 242 245 247 242 242 246 245 243 237 233 231 230 235 236 238
271 259 269 291 301 287 286 276 282 282 274 271 280 284 283 280 277 276 266 264 269 263 247 258 261 251 242 234 232 231 237 238 240 241 245 246 246 244 245 245 246 247 245 241 238 235 237 239 241
297 331 307 287 276 270 261 271 292 280 280 281 277 290 286 281 283 279 269 274 265 269 256 242 255 258 250 242 237 238 239 241 241 246 251 251 242 244 246 243 246 246 247 244 244 241 240 242 243
319 309 285 273 268 234 197 279 233 274 320 319 296 288 291 294 304 298 290 275 278 267 270 252 242 256 255 248 243 237 243 241 244 251 254 252 247 246 247 245 244 247 249 245 242 239 238 240 241
273 256 280 264 206 127 123 262 287 318 327 316 295 284 292 299 301 302 281 321 282 259 266 274 246 242 253 250 243 243 238 243 245 254 258 258 255 252 252 247 245 247 248 248 244 240 239 239 240
229 256 259 284 255 144 170 239 264 284 285 281 276 288 297 302 69 32 27 17 13 237 235 269 264 251 244 250 245 244 244 241 246 248 256 258 258 255 252 252 250 248 248 249 247 243 240 241 240
276 296 306 306 317 312 298 265 252 299 293 287 297 298 294 78 63 67 69 74 149 170 215 207 244 245 244 239 237 235 247 247 245 252 252 255 259 262 256 252 251 249 248 247 245 244 241 240 240
274 314 303 303 308 290 286 303 308 284 279 285 285 304 91 77 73 72 74 78 87 98 110 127 143 116 220 227 237 244 247 254 257 258 260 259 260 263 263 257 254 252 252 252 250 246 240 238 235
308 295 289 281 294 335 321 301 280 284 281 5 70 83 83 73 63 62 64 69 72 74 73 85 97 102 106 156 184 223 230 247 255 267 271 267 265 264 267 266 259 255 254 253 251 246 240 234 234
271 268 300 315 338 290 302 276 258 56 79 82 66 69 70 70 66 60 60 59 59 61 60 59 65 74 80 86 144 204 229 252 264 270 272 271 275 266 267 272 270 263 259 257 253 250 245 242 238
280 272 325 320 341 287 40 273 305 275 86 71 71 66 63 60 59 56 54 56 55 54 57 55 51 51 51 54 57 53 37 352 296 287 280 290 292 288 281 277 276 272 266 264 261 256 249 246 241
233 45 303 271 261 304 250 261 252 102 107 97 85 80 75 70 63 55 54 51 50 47 44 45 45 47 47 42 38 32 24 5 351 343 318 289 293 296 297 287 277 273 271 268 266 262 256 250 247
60 263 253 249 205 284 300 253 294 29 135 111 103 99 92 79 67 58 47 44 42 38 34 31 30 27 26 24 26 24 21 15 1 348 334 316 302 307 313 311 295 283 271 267 268 266 264 260 255
190 264 317 344 85 213 42 354 297 61 138 135 126 110 99 84 71 56 47 34 30 28 25 25 24 24 21 17 14 13 8 4 2 359 354 341 319 301 303 309 308 298 290 276 267 264 263 262 260
197 287 176 244 201 265 341 252 252 113 102 108 110 105 89 74 57 50 41 29 21 20 19 17 16 16 17 19 17 12 6 360 351 348 348 348 345 343 329 301 288 297 296 290 279 268 263 263 262
88 208 324 276 55 312 227 238 98 121 122 118 105 89 74 63 58 55 39 38 30 20 22 22 20 20 18 17 14 11 10 5 1 353 345 338 337 336 334 333 324 296 283 284 286 277 271 265 265
157 23 321 17 266 242 262 267 266 163 141 109 92 92 77 60 64 60 58 46 45 31 29 16 12 9 7 6 5 3 0 359 354 347 341 338 335 334 328 329 327 323 311 292 283 278 275 269 265
162 242 193 140 156 242 272 268 98 91 98 97 101 104 103 103 86 60 40 38 24 18 15 9 2 357 355 352 350 349 348 348 345 343 340 336 332 329 327 332 330 322 317 310 290 281 278 273 268
290 284 251 206 224 230 267 250 111 113 108 119 144 145 157 121 116 21 8 1 3 2 1 358 356 352 346 343 341 339 338 336 334 331 331 329 329 329 332 333 326 321 320 315 309 294 282 279 274